TimeCDT,TemperatureF,Dew PointF,Humidity,Sea Level PressureIn,VisibilityMPH,Wind Direction,Wind SpeedMPH,Gust SpeedMPH,PrecipitationIn,Events,Conditions,WindDirDegrees,DateUTC
12:53 AM,84.0,71.1,65,29.98,10.0,SE,12.7,-,N/A,,Clear,130,2013-08-04 05:53:00
1:53 AM,82.9,71.1,67,29.99,10.0,SSE,10.4,-,N/A,,Clear,150,2013-08-04 06:53:00
2:53 AM,82.0,72.0,71,29.99,10.0,SE,9.2,-,N/A,,Clear,130,2013-08-04 07:53:00
3:53 AM,80.1,72.0,76,29.99,10.0,SE,5.8,-,N/A,,Clear,130,2013-08-04 08:53:00
4:53 AM,79.0,73.0,82,29.98,10.0,SE,5.8,-,N/A,,Clear,130,2013-08-04 09:53:00
5:53 AM,78.1,73.0,84,29.97,10.0,ESE,6.9,-,N/A,,Clear,110,2013-08-04 10:53:00
6:53 AM,77.0,73.0,88,29.98,10.0,East,6.9,-,N/A,,Clear,100,2013-08-04 11:53:00
7:53 AM,78.1,73.9,87,30.00,10.0,East,8.1,-,N/A,,Clear,100,2013-08-04 12:53:00
8:53 AM,81.0,75.0,82,30.01,10.0,SE,9.2,-,N/A,,Scattered Clouds,130,2013-08-04 13:53:00
9:03 AM,82.4,75.2,79,30.03,10.0,ESE,9.2,-,N/A,,Mostly Cloudy,120,2013-08-04 14:03:00
9:31 AM,82.4,73.4,74,30.03,10.0,SE,8.1,-,N/A,,Scattered Clouds,140,2013-08-04 14:31:00
9:53 AM,86.0,73.9,67,30.01,10.0,SSE,8.1,17.3,N/A,,Partly Cloudy,150,2013-08-04 14:53:00
10:53 AM,90.0,72.0,55,30.00,10.0,South,9.2,19.6,N/A,,Clear,170,2013-08-04 15:53:00
11:53 AM,93.9,71.1,47,30.00,10.0,SE,9.2,-,N/A,,Unknown,130,2013-08-04 16:53:00
12:53 PM,97.0,68.0,39,29.98,10.0,Variable,6.9,18.4,N/A,,Clear,0,2013-08-04 17:53:00
1:53 PM,100.0,66.9,34,29.95,10.0,SE,15.0,21.9,N/A,,Partly Cloudy,130,2013-08-04 18:53:00
2:53 PM,100.9,64.0,30,29.93,10.0,SSE,12.7,20.7,N/A,,Mostly Cloudy,160,2013-08-04 19:53:00
3:53 PM,102.9,63.0,27,29.90,10.0,SE,8.1,20.7,N/A,,Partly Cloudy,130,2013-08-04 20:53:00
4:53 PM,102.9,62.1,26,29.88,10.0,SSE,11.5,18.4,N/A,,Partly Cloudy,150,2013-08-04 21:53:00
5:53 PM,102.9,63.0,27,29.86,10.0,SSE,12.7,19.6,N/A,,Mostly Cloudy,150,2013-08-04 22:53:00
6:53 PM,100.9,62.1,28,29.86,10.0,SE,13.8,25.3,N/A,,Partly Cloudy,140,2013-08-04 23:53:00
7:53 PM,99.0,61.0,28,29.87,10.0,SSE,8.1,-,N/A,,Clear,160,2013-08-05 00:53:00
8:53 PM,93.0,70.0,47,29.89,10.0,SE,11.5,24.2,N/A,,Clear,130,2013-08-05 01:53:00
9:53 PM,90.0,66.9,46,29.92,10.0,SE,15.0,29.9,N/A,,Clear,130,2013-08-05 02:53:00
10:53 PM,88.0,64.9,46,29.95,10.0,SE,13.8,-,N/A,,Clear,130,2013-08-05 03:53:00
11:53 PM,86.0,64.9,49,29.96,10.0,SE,10.4,20.7,N/A,,Clear,130,2013-08-05 04:53:00